Regional Weather Roundup
Issued by NWS

Home | Current Version | Previous Version | Text Only | Print | Product List | Glossary On
Versions: 1 2 3 4 5 6 7 8 9 10 11 12 13 14 15 16 17 18 19 20 21 22 23 24 25 26 27 28 29 30 31 32 33 34 35 36 37 38 39 40 41 42 43 44 45 46 47 48 49 50
000
ASUS43 KTOP 291659
RWRKS

WEATHER ROUNDUP FOR KANSAS
NATIONAL WEATHER SERVICE GOODLAND KS
1200 PM CDT THU SEP 29 2016

NOTE:  "FAIR" INDICATES FEW OR NO CLOUDS BELOW 12,000 FEET WITH NO
SIGNIFICANT WEATHER AND/OR OBSTRUCTIONS TO VISIBILITY.

KSZ001>006-013>018-027>032-041>047-291800-
NORTHWEST KANSAS

CITY           SKY/WX    TMP DP  RH WIND       PRES   REMARKS
GOODLAND       LGT RAIN  66  42  41 SE15      30.40F
HAYS           SUNNY     63  41  45 NE5       30.44F
HILL CITY      SUNNY     63  46  54 MISG      30.45F
RUSSELL        SUNNY     61  47  59 NW5       30.44F
$$

KSZ061>065-074>080-084>089-291800-
SOUTHWEST KANSAS

CITY           SKY/WX    TMP DP  RH WIND       PRES   REMARKS
DODGE CITY     SUNNY     64  43  46 E6        30.44F
ELKHART          N/A     68  42  38 SE9         N/A
GARDEN CITY    SUNNY     65  41  41 SE8       30.43F
GREAT BEND     SUNNY     63  43  48 NE7       30.44F
LIBERAL        SUNNY     64  43  45 SE5       30.44F
$$

KSZ066>073-081>083-090>101-291800-
SOUTHEAST KANSAS

CITY           SKY/WX    TMP DP  RH WIND       PRES   REMARKS
CHANUTE        SUNNY     67  51  56 NE12G18   30.37F
COFFEYVILLE    MOSUNNY   68  51  54 N12       30.37F
HUTCHINSON     MOSUNNY   64  48  56 N10       30.44F
MEDICINE LODGE   N/A     64  47  53 N9        30.42F
NEWTON         MOSUNNY   63  50  62 MISG      30.43S
PARSONS        SUNNY     66  51  58 NW12      30.38F
WICHITA INTL   MOSUNNY   66  49  54 VRB7      30.42F
WICHITA JABRA  MOSUNNY   65  50  58 N9        30.41F
WICHITA MCCONL MOSUNNY   65  50  57 NE9       30.41F
WINFIELD       SUNNY     66  50  56 N9        30.41F
$$

KSZ007>012-019>026-033>040-048>060-102>105-291800-
NORTHEAST KANSAS

CITY           SKY/WX    TMP DP  RH WIND       PRES   REMARKS
CONCORDIA      MOSUNNY   64  50  60 NE7       30.44F
EMPORIA        MOSUNNY   65  50  58 N9        30.40F
LAWRENCE       SUNNY     67  52  58 N12G18    30.39F
MANHATTAN      MOSUNNY   65  51  60 VRB3      30.42F
OLATHE IND     SUNNY     65  50  58 N14       30.38F
OLATHE EXE     SUNNY     63  49  60 N14       30.37F
SALINA         MOSUNNY   63  49  60 CALM      30.44F
TOPEKA BILLARD SUNNY     66  52  60 N9        30.40F
TOPEKA FORBES  SUNNY     67  52  58 NE10      30.40F
$$



USA.gov is the U.S. government's official web portal to all federal, state and local government web resources and services.